Retour au catalogue

FALCON HEAVY DEB

ActifGEO
NORAD 55266·DEBRIS·🇺🇸 United States

Lancé Jan 15, 2023 depuis Cape Canaveral Space Force Station

Loading…

TLE

FraisSource: Space-Track

Époque: Sep 14, 2026, 08:32 UTC

1 55266U 23008D   26257.35560422 -.00000060  00000-0  00000-0 0  9993
2 55266   3.3672  76.9398 0011887  81.7564 278.7724  1.02407376  8943

Suivez FALCON HEAVY DEB en temps réel avec AllMySat

Download on the App Store